Tracking 31030 objects as of 16-Jul-2025
HD Live streaming from Space Station
objects crossing your sky now

BREEZE-M DEB

Track BREEZE-M DEB now!
10-day predictions


NORAD ID: 38566
Int'l Code: 2008-011M
Perigee: 768.9 km
Apogee: 17,272.6 km
Inclination: 48.2 °
Period: 316.7 minutes
Semi major axis: 15391 km
RCS: 0.269 m2 (medium)
Launch date: March 14, 2008
Source: Commonwealth of Independent States (former USSR) (CIS)
Launch site: TYURATAM MISSILE AND SPACE COMPLEX (TTMTR)

Note: This is SATELLITE DEBRIS
Your satellite tracking list
Your tracking list is empty




NASA's NSSDC Master Catalog

Two Line Element Set (TLE):
1 38566U 08011M   25194.68654001  .00004726  00000-0  54279-1 0  9996
2 38566  48.2424 339.7211 5361213 229.2850  70.2108  4.54644272 20614
Source of the keplerian elements: AFSPC